Погода в Амеде

Индонезия     8°20′46″S   115°40′38″E
темп.,
°C
ветер,
м/с
пор.,
м/с
влажн.,
%
обл.,
%
осадки,
мм/ч
давл.,
гПа
погр.,
м
29 июля, чт
чт2923:00+27ю78775 0.0 1012745
02:00+26ю887911 0.0 1011739
05:00+27ю897886 0.0 1011767
08:00+27ю911805 0.1 1013802
11:00+28ю910760 0.0 1013859
14:00+28ю10117869 0.1 1010702
17:00+28ю1010764 0.0 1010944
20:00+27ю910755 0.0 1012867
30 июля, пт
пт3023:00+27ю887787 0.0 1013800
02:00+27ю887978 0.1 1011772
05:00+27ю788090 0.1 1011666
08:00+27ю78805 0.1 1013610
11:00+27ю77765 0.0 1012620
14:00+28ю99755 0.0 1010722
17:00+28ю109752 0.0 1010840
20:00+27ю910765 0.0 1013792
31 июля, сб
сб3123:00+27ю910785 0.0 1013800
02:00+27ю910799 0.0 1012782
05:00+27ю910793 0.0 1011774
08:00+27ю910815 0.1 1013752
11:00+27ю89773 0.1 1013828
14:00+28ю910763 0.1 1010793
17:00+27ю11117622 0.0 1010939
20:00+27ююв1112755 0.1 1012906
1 августа, вс
вс123:00+27ю11127424 0.0 1012941
02:00+27ю1012745 0.0 1011902
05:00+26ю911775 0.0 1011863
08:00+26ю9117970 0.0 1012827
11:00+27ю911735 0.0 1012938
14:00+28ю1011755 0.1 1009941
17:00+28ю1010755 0.1 1009968
20:00+27ю910785 0.1 1011817
2 августа, пн
пн223:00+27ю910785 0.0 1011851
02:00+27ю10117973 0.1 1010862
05:00+26ю10118079 0.0 1010861
08:00+27ю1011795 0.1 1012782
11:00+28ю99745 0.1 1012835
14:00+28ю10107599 0.1 1009746
17:00+28ю101076100 0.1 1009882
20:00+27ю997689 0.1 1011797